Date,TemperatureHighF,TemperatureAvgF,TemperatureLowF,DewpointHighF,DewpointAvgF,DewpointLowF,HumidityHigh,HumidityAvg,HumidityLow,PressureMaxIn,PressureMinIn,WindSpeedMaxMPH,WindSpeedAvgMPH,GustSpeedMaxMPH,PrecipitationSumIn
2013-1-1,34.7,31.4,28.1,32.3,28.8,-99.9,91,91,91,30.52,30.38,3,0,0,0.00
2013-1-2,40.5,32.7,29.3,35.8,29.5,26.8,91,88,72,30.38,30.22,5,0,0,0.01
2013-1-3,41.9,33.6,26.6,35.4,27.5,23.7,91,80,51,30.22,30.08,11,0,0,0.05
2013-1-4,44.1,41.1,37.5,41.6,38.4,-99.9,91,91,91,30.31,30.15,7,0,0,0.01
2013-1-5,42.2,40.0,38.8,39.8,37.2,36.4,91,90,81,30.21,30.10,6,0,0,0.13
2013-1-6,43.5,40.8,39.1,41.0,38.0,-99.9,91,91,89,30.17,29.99,10,0,0,0.21
2013-1-7,48.3,43.2,39.7,45.8,34.8,-99.9,91,87,91,30.16,29.82,9,0,0,0.68
2013-1-8,50.0,43.9,40.2,47.5,41.3,-99.9,91,91,91,30.17,29.70,19,1,0,0.27
2013-1-10,29.6,28.8,28.2,27.3,26.5,25.9,91,91,91,30.13,30.03,0,0,0,0.06
2013-1-11,31.5,27.5,24.5,29.2,21.8,-99.9,91,88,91,30.35,30.13,5,0,0,0.00
2013-1-12,31.2,26.0,23.5,27.6,22.3,-99.9,91,89,83,30.47,30.34,2,0,0,0.00
2013-1-13,33.1,27.3,22.4,29.4,24.8,20.2,91,90,83,30.51,30.46,2,0,0,0.01
2013-1-14,33.1,31.8,30.1,30.8,28.9,-99.9,91,91,91,30.58,30.49,3,0,0,0.00
2013-1-15,38.4,33.0,28.8,36.0,26.7,-99.9,91,88,88,30.72,30.58,1,0,0,0.01
2013-1-16,36.8,30.3,26.2,34.4,24.1,-99.9,91,88,91,30.70,30.45,2,0,0,0.00
2013-1-17,36.8,30.7,27.6,34.4,26.1,-99.9,91,89,91,30.55,30.22,2,0,0,0.00
2013-1-18,34.4,31.0,24.8,32.0,28.6,22.5,91,91,91,30.37,30.28,3,0,0,0.00
2013-1-19,34.3,32.2,30.0,31.9,29.9,27.7,91,91,91,30.40,30.35,3,0,0,0.00
2013-1-20,37.5,31.9,27.5,35.1,29.5,-99.9,91,91,91,30.41,30.28,4,0,0,0.01
2013-1-21,34.3,31.7,28.7,31.9,29.4,26.4,91,91,91,30.29,30.15,3,0,0,0.00
2013-1-22,35.2,30.7,25.3,32.8,27.5,-99.9,91,90,91,30.17,29.85,2,0,0,0.00
2013-1-23,41.1,38.2,34.0,38.7,34.0,-99.9,91,90,91,30.14,29.84,12,0,0,0.32
2013-1-24,41.8,39.8,37.1,39.4,35.1,-99.9,91,89,91,30.22,30.04,7,0,0,0.19
2013-1-25,47.4,43.4,39.4,44.8,35.3,-99.9,91,87,91,30.06,29.92,10,0,0,0.00
2013-1-26,40.8,39.1,37.8,38.4,32.4,-99.9,91,88,91,30.03,29.80,7,0,0,0.58
2013-1-27,40.7,38.9,36.9,38.3,36.5,34.5,91,91,91,30.06,29.81,4,0,0,0.60
2013-1-28,38.6,37.2,35.8,36.2,34.6,-99.9,91,91,91,30.09,30.00,5,0,0,1.42
2013-1-29,43.8,42.0,38.8,41.3,36.6,-99.9,91,89,91,30.34,30.06,7,0,0,0.52
2013-1-30,47.0,43.9,40.7,44.5,38.4,-99.9,91,89,91,30.39,30.26,3,0,0,0.24
2013-1-31,46.1,44.9,43.4,43.6,39.5,-99.9,91,89,91,30.39,30.15,8,0,0,0.11
2013-2-1,46.7,43.1,35.9,44.2,40.6,33.5,91,91,91,30.42,30.34,3,0,0,0.00
2013-2-2,43.9,38.5,34.1,41.4,36.1,31.7,91,91,91,30.41,30.14,2,0,0,0.00
2013-2-3,44.9,41.7,37.1,42.4,38.4,-99.9,91,90,91,30.32,30.11,4,0,0,0.11
2013-2-4,46.4,43.9,42.4,43.9,41.4,40.0,91,91,91,30.21,29.88,6,0,0,0.01
2013-2-5,48.2,45.4,42.9,43.5,41.4,39.6,91,86,74,29.92,29.81,18,2,0,0.01
2013-2-6,46.6,44.1,41.7,41.4,39.8,37.9,91,85,73,30.04,29.81,13,1,0,0.10
2013-2-7,46.3,40.4,32.4,40.9,36.7,30.1,91,87,63,30.22,29.81,10,1,0,0.20
2013-2-8,42.9,36.6,30.1,39.4,33.5,27.8,91,89,76,30.34,30.22,3,0,0,0.00
2013-2-9,41.9,39.6,38.1,39.5,37.2,35.7,91,91,91,30.37,30.30,1,0,0,0.09
2013-2-10,42.7,37.4,31.8,39.0,34.7,29.5,91,90,79,30.41,30.29,2,0,0,0.00
2013-2-11,42.2,40.2,38.5,39.8,37.8,36.1,91,91,91,30.37,30.34,4,0,0,0.08
2013-2-12,46.6,43.7,40.7,43.9,40.3,-99.9,91,90,91,30.41,30.15,7,0,0,0.01
2013-2-13,46.7,43.9,41.8,43.6,41.2,39.4,91,90,82,30.51,30.30,8,0,0,0.01
2013-2-14,46.0,43.4,40.9,43.5,41.0,38.5,91,91,91,30.57,30.50,4,0,0,0.10
2013-2-15,50.1,43.0,36.1,45.8,40.0,33.7,91,89,81,30.56,30.18,4,0,0,0.00
2013-2-16,45.2,42.1,36.4,42.6,39.3,34.0,91,90,81,30.20,30.08,13,0,0,0.19
2013-2-17,42.2,39.5,34.6,39.8,37.1,32.2,91,91,90,30.25,30.13,5,0,0,0.15
2013-2-18,43.7,38.0,33.4,40.1,34.9,31.1,91,88,79,30.12,29.61,7,0,0,0.00
2013-2-19,45.8,40.0,34.7,37.5,35.1,32.3,91,83,63,30.02,29.77,7,0,0,0.00
2013-2-20,42.8,38.2,34.4,40.0,35.6,32.0,91,90,83,30.06,30.00,9,0,0,0.02
2013-2-21,41.7,39.7,37.5,39.3,37.1,-99.9,91,91,91,30.07,29.97,10,0,0,0.11
2013-2-22,44.2,40.8,36.6,41.7,37.9,-99.9,91,90,88,30.05,29.67,20,1,0,0.20
2013-2-23,46.3,39.7,35.5,40.4,35.9,33.1,91,86,69,30.37,29.90,11,0,0,0.13
2013-2-24,45.2,41.9,37.8,38.8,37.2,35.4,91,84,72,30.39,29.93,14,1,0,0.02
2013-2-25,46.8,42.2,39.5,39.0,35.6,31.2,91,78,56,30.30,29.89,16,1,0,0.14
2013-2-26,45.4,41.1,36.1,36.7,34.5,32.5,91,78,61,30.35,30.15,13,1,0,0.00
2013-2-27,48.8,42.4,35.9,41.6,37.9,33.5,91,85,60,30.32,30.19,7,0,0,0.01
2013-2-28,50.5,43.8,39.7,48.0,41.1,-99.9,91,91,91,30.28,30.20,19,0,0,0.19
2013-3-1,55.6,53.0,50.5,51.3,49.2,-99.9,91,87,81,30.34,30.26,18,2,0,0.00
2013-3-2,55.1,47.5,38.5,49.7,43.6,36.1,91,86,74,30.26,30.06,12,1,0,0.32
2013-3-3,45.5,40.3,32.8,39.0,35.3,30.5,91,83,63,30.33,30.16,12,0,0,0.01
2013-3-4,49.8,38.1,29.7,39.1,32.3,27.4,91,81,52,30.33,29.96,3,0,0,0.00
2013-3-5,52.5,43.1,35.9,40.5,33.9,27.7,91,71,40,29.96,29.75,4,0,0,0.01
2013-3-6,42.2,40.2,36.4,39.8,37.6,-99.9,91,91,90,29.90,29.60,6,0,0,0.49
2013-3-7,45.4,39.9,34.4,42.9,37.5,31.9,91,91,91,30.12,29.90,5,0,0,0.17
2013-3-8,47.9,38.5,31.6,44.3,35.2,29.3,91,88,73,30.26,30.10,8,0,0,0.00
2013-3-9,50.8,39.1,30.9,40.6,34.3,28.6,91,84,58,30.51,30.26,6,0,0,0.00
2013-3-10,46.4,41.1,34.6,41.7,37.9,32.2,91,88,75,30.51,30.39,3,0,0,0.00
2013-3-11,51.9,44.2,36.6,43.6,38.8,34.1,91,82,56,30.47,30.16,5,0,0,0.02
2013-3-12,51.7,49.8,45.4,48.8,47.2,42.9,91,90,84,30.16,30.03,12,1,0,0.27
2013-3-13,51.1,50.1,49.2,48.6,47.6,46.7,91,91,91,30.19,30.08,10,1,0,0.20
2013-3-14,51.3,49.8,47.4,48.8,47.1,44.9,91,90,85,30.15,30.03,13,1,0,0.07
2013-3-15,57.1,51.2,47.4,50.3,47.2,44.9,91,86,73,30.21,30.14,8,0,0,0.01
2013-3-16,49.1,43.8,38.1,45.5,41.3,35.7,91,91,85,30.14,29.90,10,0,0,0.88
2013-3-17,45.1,41.1,37.5,37.7,35.6,32.3,91,81,63,30.19,29.97,17,1,0,0.02
2013-3-18,48.2,41.3,34.3,38.8,34.7,26.2,91,79,43,30.27,30.10,12,1,0,0.10
2013-3-19,51.6,41.5,33.0,40.8,34.8,30.7,91,79,47,30.26,29.60,10,0,0,0.06
2013-3-20,51.4,45.4,39.4,46.6,40.4,28.4,91,83,63,30.01,29.36,20,2,0,0.36
2013-3-21,45.7,38.8,35.6,39.4,34.5,32.0,91,85,67,30.21,30.01,12,0,0,0.09
2013-3-22,44.5,37.3,31.6,36.1,31.3,26.1,91,80,50,30.40,30.21,8,0,0,0.05
2013-3-23,48.0,38.4,30.9,35.6,30.1,25.6,91,74,43,30.42,30.32,6,0,0,0.00
2013-3-24,53.8,40.8,30.9,35.3,31.1,23.8,91,72,32,30.32,30.14,6,0,0,0.00
2013-3-25,57.9,45.1,34.7,37.2,32.5,23.3,87,65,28,30.16,29.96,6,0,0,0.00
2013-3-26,58.1,47.4,37.5,41.6,37.5,33.8,89,70,43,30.03,29.97,6,0,0,0.00
2013-3-27,56.2,47.7,41.1,45.3,41.5,38.3,91,80,60,30.01,29.81,3,0,0,0.00
2013-3-28,60.4,49.6,40.1,47.9,43.3,37.7,91,80,58,30.16,30.01,6,0,0,0.00
2013-3-29,61.8,50.0,39.7,48.7,43.5,37.3,91,80,57,30.26,30.16,7,0,0,0.00
2013-3-30,62.7,49.6,36.9,49.5,42.0,34.5,91,77,56,30.28,30.11,7,0,0,0.00
2013-3-31,66.4,51.5,39.8,48.5,42.2,37.4,91,73,41,30.10,29.92,6,0,0,0.00
2013-4-1,57.6,48.8,40.4,48.9,44.6,37.8,91,86,70,30.16,29.97,6,0,0,0.00
2013-4-2,53.4,50.1,45.1,48.2,45.8,42.6,91,86,77,30.21,30.16,6,0,0,0.00
2013-4-3,61.6,51.4,45.5,48.4,45.4,43.0,91,81,58,30.20,29.97,6,0,0,0.00
2013-4-4,54.4,50.8,46.7,51.8,48.2,44.2,91,91,86,29.97,29.63,12,0,0,0.27
2013-4-5,58.1,51.9,48.8,51.5,47.9,45.1,91,87,70,29.85,29.70,18,1,0,0.14
2013-4-6,54.8,48.6,45.4,46.7,42.8,-99.9,91,83,64,29.91,29.72,14,1,0,0.11
2013-4-7,45.4,43.0,41.4,42.4,40.4,39.0,91,91,85,29.89,29.53,4,0,0,0.61
2013-4-8,51.0,45.0,42.2,48.2,42.5,39.8,91,91,87,30.28,29.90,4,0,0,0.00
2013-4-9,53.5,48.0,42.5,45.7,42.7,40.1,91,82,68,30.35,30.18,7,0,0,0.00
2013-4-10,54.1,49.8,44.5,49.1,44.6,41.4,91,83,67,30.26,29.88,29,2,0,0.02
2013-4-11,53.2,46.5,37.4,43.4,39.6,34.0,91,78,52,30.31,30.21,7,0,0,0.01
2013-4-12,46.1,40.4,36.6,41.5,37.8,34.2,91,90,78,30.21,29.60,10,0,0,0.28
2013-4-13,45.7,41.0,37.6,43.0,38.4,34.8,91,90,84,30.01,29.74,13,0,0,0.08
2013-4-14,50.2,42.1,36.9,44.3,37.9,34.5,91,86,60,30.03,29.93,5,0,0,0.00
2013-4-15,53.2,43.8,36.1,43.9,39.1,33.7,91,84,63,30.20,29.96,7,0,0,0.03
2013-4-16,57.2,43.0,34.1,44.9,36.9,31.7,91,81,47,30.42,30.20,6,0,0,0.01
2013-4-17,59.5,45.7,35.3,44.0,37.9,32.9,91,76,44,30.47,30.42,8,0,0,0.00
2013-4-18,47.9,45.4,42.8,45.2,42.7,40.4,91,90,84,30.46,30.21,8,0,0,0.02
2013-4-19,53.1,49.1,47.3,50.5,46.6,44.8,91,91,91,30.20,30.07,7,0,0,0.02
2013-4-20,51.0,47.3,45.4,47.9,44.5,42.9,91,90,82,30.29,30.20,6,0,0,0.01
2013-4-21,52.8,45.8,38.4,47.6,42.0,36.0,91,87,72,30.39,30.24,7,0,0,0.01
2013-4-22,59.8,45.9,33.5,43.4,35.7,26.5,91,71,32,30.55,30.39,7,0,0,0.00
2013-4-23,62.7,47.5,35.3,45.0,37.3,30.4,91,71,32,30.45,30.27,7,0,0,0.00
2013-4-24,68.5,51.8,38.2,48.5,39.1,28.9,91,67,26,30.34,30.04,7,0,0,0.00
2013-4-25,70.2,54.5,39.1,50.7,43.2,36.7,91,69,41,30.16,30.06,6,0,0,0.00
2013-4-26,67.0,54.1,42.4,51.9,46.1,40.0,91,76,48,30.26,30.15,6,0,0,0.00
2013-4-27,53.8,51.0,47.4,49.5,46.4,42.0,91,85,65,30.22,30.15,14,0,0,0.03
2013-4-28,52.9,48.4,45.1,48.9,45.2,42.6,91,89,79,30.23,29.93,10,0,0,0.02
2013-4-29,55.9,47.4,41.8,45.7,38.0,32.6,91,71,46,30.16,29.92,13,1,0,0.01
2013-4-30,55.1,44.6,36.6,41.2,35.5,28.8,91,73,39,30.47,30.16,8,0,0,0.09
2013-5-1,62.9,48.1,33.4,43.2,36.5,31.1,91,68,37,30.60,30.47,6,0,0,0.00
2013-5-2,67.0,51.9,39.8,47.7,41.3,36.8,91,69,42,30.57,30.39,7,0,0,0.00
2013-5-3,68.5,54.5,40.9,50.7,44.7,38.5,91,72,46,30.41,30.24,7,0,0,0.00
2013-5-4,75.5,60.6,47.9,52.9,47.3,40.6,90,65,36,30.26,30.02,10,0,0,0.00
2013-5-5,78.9,62.6,46.6,55.0,48.8,43.1,91,64,32,30.02,29.79,7,0,0,0.00
2013-5-6,82.8,65.0,51.0,57.1,48.0,42.7,79,57,29,29.87,29.77,5,0,0,0.00
2013-5-7,69.5,56.8,47.3,55.5,50.3,44.8,91,80,55,30.01,29.82,6,0,0,0.00
2013-5-8,63.0,54.2,46.3,54.5,49.8,43.8,91,85,70,30.17,30.01,6,0,0,0.00
2013-5-9,67.5,54.6,46.0,56.3,49.3,43.5,91,83,62,30.24,30.14,5,0,0,0.00
2013-5-10,75.5,59.5,46.0,59.1,50.9,43.5,91,75,49,30.22,30.12,4,0,0,0.00
2013-5-11,78.5,61.7,50.1,59.3,51.6,46.6,91,72,40,30.18,30.00,5,0,0,0.00
2013-5-12,66.2,60.1,55.6,60.2,55.6,50.6,91,85,71,30.09,29.89,6,0,0,0.00
2013-5-13,62.7,58.4,55.7,56.3,53.5,48.4,91,84,66,30.04,29.93,11,1,0,0.00
2013-6-13,63.3,57.2,52.6,51.0,49.6,48.5,86,76,63,30.23,30.19,7,0,0,0.01
2013-6-14,64.5,56.6,51.3,52.3,50.0,48.4,91,80,58,30.25,30.08,6,0,0,0.00
2013-6-15,74.6,60.5,46.4,58.1,52.2,43.9,91,76,50,30.08,29.93,6,0,0,0.00
2013-6-16,71.7,60.0,50.1,58.8,53.5,47.6,91,80,61,30.10,29.99,4,0,0,0.00
2013-6-17,74.3,61.5,48.6,57.3,51.7,42.7,91,73,35,30.10,29.90,7,0,0,0.01
2013-6-18,71.7,60.8,52.5,55.7,50.6,37.7,91,72,31,29.98,29.88,7,0,0,0.00
2013-6-19,66.4,58.3,52.2,55.6,51.0,47.5,91,78,52,30.01,29.92,6,0,0,0.01
2013-6-20,56.0,53.7,52.3,51.8,50.8,49.8,91,90,80,30.11,29.97,5,0,0,0.02
2013-6-21,64.1,56.8,52.0,58.8,52.7,49.5,91,86,68,30.18,30.12,2,0,0,0.00
2013-6-22,74.6,61.6,50.0,61.1,53.9,47.3,91,77,50,30.14,29.87,4,0,0,0.00
2013-6-23,68.4,62.4,54.7,63.4,58.5,52.1,91,87,77,29.87,29.60,1,0,0,0.01
2013-6-24,64.5,60.8,57.3,59.4,56.8,54.4,91,87,73,29.70,29.58,9,0,0,0.00
2013-6-25,71.7,61.1,55.9,61.6,56.2,53.3,91,85,56,29.86,29.68,8,0,0,0.03
2013-6-26,70.9,61.3,54.7,61.9,56.3,52.1,91,84,63,30.09,29.85,10,0,0,0.01
2013-6-27,68.7,62.6,58.2,65.3,59.6,55.6,91,90,83,30.21,30.05,6,0,0,0.02
2013-6-28,80.0,68.4,59.0,70.2,62.5,56.4,91,82,58,30.21,30.05,6,0,0,0.00
2013-6-29,82.2,69.3,61.0,68.1,61.7,57.2,91,78,54,30.10,30.01,6,0,0,0.00
2013-6-30,87.1,72.2,57.3,71.1,62.5,54.1,91,73,53,30.03,29.86,5,0,0,0.00
2013-7-1,84.0,68.9,59.3,67.5,60.4,56.0,91,75,54,30.04,29.92,6,0,0,0.00
2013-7-2,74.5,64.4,54.7,63.2,55.7,50.0,91,75,49,30.13,30.04,7,0,0,0.00
2013-7-3,73.1,61.2,50.5,57.7,51.9,47.8,91,73,42,30.17,30.07,5,0,0,0.00
2013-7-4,69.4,58.8,51.4,57.5,52.8,48.9,91,81,56,30.13,30.04,6,0,0,0.00
2013-7-5,71.9,60.7,49.8,59.2,53.8,47.3,91,79,56,30.05,29.96,4,0,0,0.00
2013-7-6,77.1,61.7,51.6,61.8,54.7,49.1,91,79,54,29.99,29.88,8,0,0,0.00
2013-7-7,77.3,64.5,52.5,60.2,54.8,49.9,91,73,43,29.95,29.88,6,0,0,0.00
2013-7-8,76.7,62.3,52.5,61.5,55.9,49.9,91,81,52,30.10,29.95,4,0,0,0.00
2013-7-9,81.1,64.7,52.2,65.1,55.9,49.7,91,75,49,30.12,30.03,6,0,0,0.00
2013-7-10,74.1,60.0,52.5,59.1,53.0,48.5,91,79,57,30.08,29.99,7,0,0,0.00
2013-7-11,68.0,58.4,48.9,53.2,49.6,46.1,91,74,51,30.09,30.02,7,0,0,0.00
2013-7-12,69.7,56.7,47.1,55.9,49.8,44.6,91,79,56,30.12,30.03,6,0,0,0.00
2013-7-13,75.2,58.9,46.4,55.8,49.7,43.9,91,74,40,30.22,30.12,8,0,0,0.00
2013-7-14,77.3,62.8,47.4,57.2,50.2,44.9,91,67,40,30.15,30.02,7,0,0,0.00
2013-7-15,79.2,63.4,48.8,58.1,50.7,45.2,91,67,36,30.07,29.91,12,0,0,0.00
2013-7-16,85.1,68.8,52.8,62.3,54.5,49.1,91,63,31,29.92,29.82,8,0,0,0.00
2013-7-17,71.0,64.7,59.6,60.0,57.8,54.5,91,79,63,30.20,29.86,8,0,0,0.01
2013-7-18,75.3,63.6,55.9,60.4,55.8,53.1,91,77,56,30.24,30.14,6,0,0,0.00
2013-7-19,76.2,62.5,53.7,62.2,56.0,51.1,91,81,58,30.19,30.07,6,0,0,0.00
2013-7-20,73.3,59.6,54.2,61.8,54.9,51.6,91,85,61,30.10,29.98,3,0,0,0.00
2013-7-21,73.6,63.0,53.2,61.5,56.5,50.6,91,80,60,29.99,29.91,6,0,0,0.00
2013-7-22,75.9,62.9,54.1,62.2,56.6,51.5,91,81,60,30.07,29.96,6,0,0,0.00
2013-7-23,82.2,63.3,52.0,63.1,54.9,49.5,91,77,44,30.09,29.99,4,0,0,0.00
2013-7-24,80.4,63.2,51.6,61.1,53.6,49.1,91,73,49,30.07,30.02,5,0,0,0.00
2013-7-25,80.2,63.7,50.8,61.1,54.0,48.3,91,73,42,30.12,30.05,5,0,0,0.00
2013-7-26,82.4,63.5,50.1,60.2,51.6,45.7,91,69,38,30.17,30.10,6,0,0,0.00
2013-7-27,76.2,62.2,48.9,58.0,52.0,46.4,91,72,46,30.17,30.01,6,0,0,0.00
2013-7-28,70.5,59.7,49.8,57.6,53.2,47.3,91,80,59,30.03,29.95,6,0,0,0.00
2013-7-29,72.2,61.0,51.7,58.3,54.0,49.2,91,79,56,30.02,29.96,5,0,0,0.00
2013-7-30,74.8,62.4,50.8,60.7,55.0,48.3,91,78,55,30.15,30.02,5,0,0,0.00
2013-7-31,72.2,60.9,54.1,61.6,56.4,51.5,91,86,66,30.14,29.99,3,0,0,0.00
2013-8-1,64.5,59.8,55.0,58.2,55.8,52.4,91,87,77,30.07,30.03,3,0,0,0.00
2013-8-2,60.7,58.8,57.3,57.3,55.9,54.7,91,90,85,30.15,30.06,3,0,0,0.03
2013-8-3,72.4,62.9,57.1,63.6,57.9,54.5,91,84,67,30.15,30.07,6,0,0,0.00
2013-8-4,77.4,64.9,53.9,65.0,57.9,51.3,91,79,58,30.08,29.96,4,0,0,0.00
2013-8-5,81.5,64.5,52.5,64.4,56.5,49.9,91,77,49,30.02,29.94,5,0,0,0.00
2013-8-6,78.9,64.0,51.3,60.6,54.3,48.8,91,74,42,30.02,29.93,5,0,0,0.00
2013-8-7,82.0,65.1,52.9,63.0,55.4,50.3,91,74,42,30.02,29.96,7,0,0,0.00
2013-8-8,77.8,64.4,55.1,62.9,56.4,52.5,91,77,54,30.04,29.96,10,0,0,0.00
2013-8-9,81.1,65.4,53.5,62.8,56.7,50.9,91,75,47,29.98,29.84,5,0,0,0.00
2013-8-10,77.3,66.1,59.2,65.9,59.7,55.4,91,81,59,30.02,29.89,6,0,0,0.01
2013-8-11,72.2,61.9,55.9,62.0,56.7,53.3,91,83,62,30.07,30.00,4,0,0,0.01
2013-8-12,76.2,62.7,54.7,61.1,56.0,52.1,91,80,56,30.09,30.02,5,0,0,0.00
2013-8-13,77.8,64.0,54.1,60.6,55.7,51.5,91,76,52,30.12,29.94,3,0,0,0.00
2013-8-14,80.0,64.7,52.9,64.3,57.8,50.3,91,80,48,29.96,29.91,5,0,0,0.00
2013-8-15,69.0,65.0,61.1,65.3,62.2,58.5,91,91,86,30.00,29.93,6,0,0,0.00
2013-8-16,80.9,68.7,61.9,66.1,60.7,55.3,91,78,44,30.01,29.94,6,0,0,0.00
2013-8-17,73.1,64.7,57.9,63.1,58.7,55.0,91,82,65,30.08,30.00,6,0,0,0.00
2013-8-18,76.0,62.2,55.9,61.1,55.7,52.4,91,81,55,30.12,30.08,10,0,0,0.00
2013-8-19,77.3,64.3,56.5,61.0,55.2,50.6,91,74,51,30.13,30.08,6,0,0,0.00
2013-8-20,75.9,61.4,51.1,59.9,52.8,48.6,91,75,49,30.19,30.09,6,0,0,0.00
2013-8-21,78.7,62.3,48.5,59.3,52.4,46.0,91,73,45,30.11,29.95,7,0,0,0.00
2013-8-22,79.6,66.4,52.5,61.6,55.9,49.6,91,71,42,29.97,29.80,5,0,0,0.00
2013-8-23,71.5,62.8,56.0,60.3,56.5,53.4,91,81,64,29.90,29.83,8,0,0,0.00
2013-8-24,69.5,62.0,55.7,61.5,57.0,53.1,91,84,64,29.93,29.87,3,0,0,0.01
2013-8-25,74.3,61.0,49.8,59.8,54.7,47.3,91,81,56,29.96,29.88,3,0,0,0.00
2013-8-26,75.3,65.0,59.2,60.8,57.5,52.1,91,78,51,29.95,29.85,6,0,0,0.01
2013-8-27,78.0,67.1,59.0,62.8,58.7,56.4,91,76,51,29.95,29.81,7,0,0,0.00
2013-8-28,77.8,66.7,58.9,68.6,61.3,56.3,91,84,60,29.89,29.83,6,0,0,0.02
2013-8-29,71.0,65.2,62.4,66.2,62.1,59.7,91,90,80,29.99,29.86,8,0,0,0.02
2013-8-30,73.6,65.1,57.9,62.5,58.4,54.5,91,80,53,30.15,29.99,6,0,0,0.00
2013-8-31,77.3,62.9,52.0,62.7,56.2,49.5,91,80,56,30.10,29.85,5,0,0,0.00
2013-9-1,78.7,64.7,54.1,63.7,56.7,51.5,91,77,51,29.90,29.81,5,0,0,0.00
2013-9-2,79.2,65.9,56.6,63.7,57.7,54.0,91,77,47,29.94,29.86,5,0,0,0.00
2013-9-3,66.6,61.8,57.8,63.9,59.1,55.2,91,91,90,30.04,29.94,3,0,0,0.02
2013-9-4,68.7,61.4,56.2,63.4,58.2,53.6,91,89,80,30.07,30.01,3,0,0,0.00
2013-9-5,64.8,60.0,55.6,61.9,57.3,53.0,91,91,87,30.06,29.93,4,0,0,0.06
2013-9-6,66.6,62.2,59.6,63.9,59.5,57.0,91,91,89,30.11,29.95,2,0,0,0.09
2013-9-7,72.7,63.7,58.1,64.6,59.6,55.5,91,87,71,30.12,30.03,1,0,0,0.00
2013-9-8,75.0,63.5,54.5,65.4,58.5,51.9,91,84,62,30.12,30.04,3,0,0,0.00
2013-9-9,74.6,62.9,55.7,63.8,58.1,53.1,91,85,66,30.08,29.99,6,0,0,0.00
2013-9-10,72.7,62.0,54.1,64.7,57.7,51.5,91,86,72,30.02,29.91,6,0,0,0.00
2013-9-11,84.2,68.0,56.8,67.1,59.9,54.2,91,77,49,29.96,29.89,5,0,0,0.00
2013-9-12,74.6,64.5,56.6,63.5,58.6,54.0,91,82,64,30.01,29.91,5,0,0,0.00
2013-9-13,63.7,60.4,57.2,61.0,57.8,54.6,91,91,91,29.99,29.89,2,0,0,0.00
2013-9-14,64.9,61.0,57.8,61.1,58.2,55.2,91,90,87,29.90,29.75,2,0,0,0.00
2013-9-15,62.2,59.8,56.2,59.5,56.7,-99.9,91,91,91,29.81,29.73,3,0,0,0.07
2013-9-16,61.9,59.0,53.9,59.2,56.4,51.3,91,91,90,29.95,29.81,8,0,0,0.00
2013-9-17,60.4,56.2,53.2,56.0,52.9,50.6,91,89,82,29.95,29.88,5,0,0,0.00
2013-9-18,64.6,56.3,51.0,55.9,51.4,48.3,91,84,57,30.08,29.95,5,0,0,0.00
2013-9-19,73.4,59.7,47.6,58.6,50.9,45.1,91,75,44,30.07,29.77,6,0,0,0.00
2013-9-20,73.3,60.5,50.2,58.4,52.3,46.5,91,76,47,29.77,29.59,5,0,0,0.00
2013-9-21,66.4,59.2,53.1,56.4,54.1,50.5,91,84,62,29.73,29.65,5,0,0,0.00
2013-9-22,58.1,56.4,53.1,55.0,53.1,49.7,91,89,74,29.72,29.56,8,1,0,0.00
2013-9-23,57.9,54.7,50.2,54.9,51.7,47.7,91,90,86,29.98,29.72,8,0,0,0.00
2013-9-24,59.8,53.1,48.6,53.9,48.9,46.1,91,86,66,29.98,29.84,6,0,0,0.05
2013-9-25,55.4,50.4,44.2,51.9,47.7,41.7,91,90,84,30.05,29.88,3,0,0,0.00
2013-9-26,57.8,48.5,41.9,51.9,45.1,39.5,91,88,72,30.14,30.05,4,0,0,0.00
2013-9-27,53.5,51.0,46.7,50.9,48.4,44.2,91,91,91,30.13,29.85,5,0,0,0.05
2013-9-28,58.6,53.9,49.7,56.0,51.4,47.2,91,91,91,29.84,29.32,13,1,0,0.30
2013-9-29,54.5,52.1,50.0,51.3,49.4,47.5,91,90,84,29.53,29.16,17,1,0,0.14
2013-9-30,55.7,51.5,48.5,51.8,48.3,45.8,91,89,77,29.91,29.36,8,0,0,0.05
2013-10-1,55.3,50.5,47.9,49.0,46.8,44.0,91,87,70,30.11,29.91,10,0,0,0.01
2013-10-2,50.2,49.1,48.0,47.7,46.6,45.5,91,91,91,30.19,30.07,8,0,0,0.01
2013-10-3,54.1,47.9,42.1,49.6,44.5,-99.9,91,89,77,30.47,30.19,4,0,0,0.00
2013-10-4,59.9,49.1,40.8,53.2,44.9,38.4,91,86,60,30.50,30.37,3,0,0,0.00
2013-10-5,63.5,52.8,47.3,53.3,47.4,44.0,91,83,52,30.38,30.15,3,0,0,0.00
2013-10-6,71.4,56.9,45.2,53.3,46.9,40.9,91,72,35,30.15,29.87,13,0,0,0.00
2013-10-7,55.4,52.9,50.4,51.8,50.4,47.9,91,91,88,30.02,29.86,10,0,0,0.01
2013-10-8,53.5,49.4,42.7,48.6,46.0,40.3,91,88,75,30.09,29.97,6,0,0,0.00
2013-10-9,54.4,45.8,38.1,48.4,42.2,35.7,91,87,73,30.16,29.98,5,0,0,0.00
2013-10-10,55.4,48.7,43.1,50.5,45.8,40.7,91,89,76,30.08,29.96,3,0,0,0.00
2013-10-11,54.7,47.7,41.4,50.9,44.9,39.0,91,90,83,30.16,30.08,2,0,0,0.00
2013-10-12,52.8,48.6,41.9,50.0,46.0,39.5,91,91,87,30.23,30.08,5,0,0,0.00
2013-10-13,52.6,45.9,40.7,48.5,43.0,38.3,91,90,81,30.38,30.24,3,0,0,0.00
2013-10-14,53.5,44.6,37.2,48.3,41.5,34.8,91,89,78,30.45,30.38,6,0,0,0.00
2013-10-15,57.1,47.5,40.1,49.7,43.7,37.7,91,87,69,30.41,30.19,2,0,0,0.00
2013-10-16,52.3,48.2,44.2,49.8,45.7,41.7,91,91,90,30.22,30.17,3,0,0,0.00
2013-10-17,54.8,48.8,42.4,50.0,45.8,40.0,91,89,82,30.29,30.22,3,0,0,0.00
2013-10-18,53.5,44.9,36.9,50.0,42.2,34.5,91,90,87,30.27,30.17,5,0,0,0.00
2013-10-19,47.9,44.3,37.9,45.4,41.9,35.5,91,91,91,30.22,30.17,3,0,0,0.00
2013-10-20,48.5,47.1,46.0,46.0,44.6,43.5,91,91,91,30.22,30.17,2,0,0,0.00
2013-10-21,49.5,47.7,46.0,47.0,45.2,43.5,91,91,91,30.19,30.12,2,0,0,0.00
2013-10-22,49.5,47.4,45.5,47.0,44.8,-99.9,91,91,91,30.14,30.05,2,0,0,0.00
2013-10-23,54.5,46.3,38.2,51.9,43.8,35.8,91,91,91,30.07,29.99,1,0,0,0.00
2013-10-24,50.5,45.5,39.4,48.0,43.1,37.0,91,91,91,30.13,30.04,3,0,0,0.00
2013-10-25,51.1,47.7,44.1,48.6,45.2,41.6,91,91,91,30.33,30.13,2,0,0,0.00
2013-10-26,52.0,48.9,46.6,48.2,46.0,44.1,91,90,83,30.35,30.20,5,0,0,0.00
2013-10-27,53.7,48.7,44.1,49.2,45.3,40.8,91,88,74,30.21,29.92,12,0,0,0.07
2013-10-28,55.7,47.8,37.8,41.2,37.8,32.4,91,70,45,29.97,29.90,7,0,0,0.00
2013-10-29,51.7,40.6,34.7,42.6,36.6,32.3,91,86,65,30.05,29.97,3,0,0,0.00
2013-10-30,53.4,45.1,35.6,47.7,41.0,33.2,91,86,68,30.14,30.05,5,0,0,0.00
2013-10-31,50.8,48.9,46.8,48.3,46.4,44.3,91,91,86,30.27,30.09,4,0,0,0.07
2013-11-1,54.4,51.4,48.8,51.8,48.8,46.3,91,91,91,30.28,29.85,1,0,0,0.02
2013-11-2,51.1,47.1,41.2,48.6,44.5,38.8,91,90,82,29.87,29.43,22,1,0,0.05
2013-11-3,45.5,40.0,33.3,43.0,37.5,31.0,91,91,85,30.13,29.88,6,0,0,0.00
2013-11-4,44.8,37.8,31.6,40.9,34.9,29.3,91,89,82,30.22,30.08,3,0,0,0.00
2013-11-5,45.5,42.3,39.7,43.0,39.8,37.3,91,91,91,30.28,30.04,2,0,0,0.01
2013-11-6,48.3,44.5,40.8,45.8,42.0,38.4,91,91,91,30.34,30.04,2,0,0,0.01
2013-11-7,48.9,47.4,45.5,46.4,44.9,43.0,91,91,91,30.03,29.70,17,1,0,0.03
2013-11-8,49.2,45.5,39.7,46.6,43.0,37.3,91,91,91,30.17,29.98,4,0,0,0.01
2013-11-9,47.7,42.6,38.1,45.2,40.1,35.7,91,91,91,30.18,30.08,1,0,0,0.00
2013-11-10,47.0,44.7,43.4,44.5,42.2,40.9,91,91,91,30.17,30.12,2,0,0,0.00
2013-11-11,52.3,45.6,38.9,49.8,43.2,36.5,91,91,91,30.18,30.02,1,0,0,0.00
2013-11-12,54.5,52.5,46.4,51.9,48.8,42.8,91,88,68,30.35,30.03,11,0,0,0.00
2013-11-13,54.1,50.8,47.0,51.0,48.1,44.5,91,90,85,30.44,30.33,5,0,0,0.00
2013-11-14,48.6,46.2,42.5,46.1,43.8,40.1,91,91,91,30.32,30.07,6,0,0,0.02
2013-11-15,46.1,43.4,41.7,43.6,41.0,39.3,91,91,91,30.08,29.33,11,0,0,0.04
2013-11-30,48.2,48.0,47.9,45.7,45.5,45.4,91,91,91,30.13,30.08,4,0,0,0.00
2013-12-1,49.8,47.1,38.9,47.3,44.6,36.5,91,91,91,30.08,29.75,16,0,0,0.08
2013-12-2,42.1,38.7,34.4,37.1,34.1,32.0,91,83,71,30.08,29.80,13,1,0,0.00
2013-12-3,34.9,29.6,24.5,32.5,24.7,20.9,91,82,63,30.34,30.08,7,0,0,0.00
2013-12-4,32.7,26.5,23.0,23.5,20.7,18.1,88,79,61,30.38,30.33,2,0,0,0.00
2013-12-5,31.3,25.4,21.6,23.6,20.3,17.5,89,81,69,30.35,30.21,2,0,0,0.00
2013-12-6,29.4,22.8,17.5,18.9,12.7,4.7,88,67,40,30.29,30.18,2,0,0,0.00
2013-12-7,25.7,18.5,13.9,9.5,6.0,0.8,78,59,34,30.45,30.28,3,0,0,0.00
2013-12-8,28.4,21.1,14.7,18.0,14.5,9.3,86,76,60,30.59,30.44,3,0,0,0.00
2013-12-9,30.3,26.3,17.8,27.0,21.2,14.4,90,81,73,30.61,30.50,2,0,0,0.00
2013-12-10,35.9,32.2,29.0,32.3,29.4,26.4,91,89,84,30.51,30.44,3,0,0,0.00
2013-12-11,39.2,33.1,29.0,32.2,29.3,26.7,91,86,72,30.45,30.18,2,0,0,0.00
2013-12-12,43.5,38.7,31.3,40.0,34.2,29.0,91,84,68,30.18,30.03,12,1,0,0.00
2013-12-13,44.8,42.8,41.5,42.3,40.4,39.1,91,91,91,30.42,30.14,6,0,0,0.00
2013-12-14,46.4,44.5,41.8,43.9,42.0,39.4,91,91,90,30.44,30.31,10,0,0,0.00
2013-12-15,48.2,46.2,40.4,45.7,43.7,38.0,91,91,90,30.46,30.33,8,0,0,0.00
2013-12-16,44.8,39.3,33.7,42.3,36.8,31.4,91,91,91,30.51,30.29,2,0,0,0.00
2013-12-17,40.4,36.2,30.9,38.0,33.8,28.6,91,91,91,30.29,30.12,2,0,0,0.00
2013-12-18,41.4,38.0,29.6,39.0,34.9,27.0,91,89,82,30.18,30.04,9,0,0,0.00
2013-12-19,34.3,30.4,26.0,28.5,25.5,21.0,90,82,71,30.37,30.18,3,0,0,0.00
2013-12-20,35.2,32.7,30.4,32.8,30.2,27.0,91,90,84,30.22,29.74,6,0,0,0.00
2013-12-21,38.8,36.3,34.4,36.4,33.9,32.0,91,91,91,30.18,29.86,1,0,0,0.01
2013-12-22,46.8,40.6,36.9,44.3,38.2,34.5,91,91,91,30.30,30.18,4,0,0,0.00
2013-12-23,48.2,44.9,38.2,45.7,42.4,35.8,91,91,89,30.53,30.14,13,1,0,0.00
2013-12-24,42.9,37.6,31.5,40.5,35.2,29.2,91,91,91,30.63,30.48,2,0,0,0.00
2013-12-25,40.5,35.8,30.0,38.1,33.4,27.7,91,91,91,30.56,30.42,2,0,0,0.00
2013-12-26,42.8,37.5,33.8,40.4,35.1,31.5,91,91,90,30.42,30.22,1,0,0,0.00
2013-12-27,42.9,38.8,33.5,40.5,36.4,31.2,91,91,91,30.38,30.12,3,0,0,0.00
2013-12-28,44.1,39.9,35.6,41.6,37.5,33.2,91,91,91,30.53,30.37,2,0,0,0.00
2013-12-29,40.8,38.9,37.1,38.4,36.5,34.7,91,91,91,30.50,30.33,2,0,0,0.00
2013-12-30,42.8,39.8,36.1,40.4,37.4,33.7,91,91,91,30.34,30.13,5,0,0,0.00
2013-12-31,44.4,42.6,38.8,41.9,40.2,36.4,91,91,91,30.39,30.21,7,0,0,0.00
2014-1-1,42.8,39.4,34.4,40.4,37.0,32.0,91,91,91,30.43,30.25,2,0,0,0.00
2014-1-2,45.1,43.1,40.1,42.6,40.6,37.5,91,91,91,30.26,29.91,12,0,0,0.00